Regional Weather Roundup
Issued by NWS Sterling, VA

Home | Current Version | Previous Version | Text Only | Print | Product List | Glossary On
Versions: 1 2 3 4 5 6 7 8 9 10 11 12 13 14 15 16 17 18 19 20 21 22 23 24 25 26 27
000
ASUS41 KLWX 170610
RWRLWX

REGIONAL WEATHER ROUNDUP
NATIONAL WEATHER SERVICE BALTIMORE MD/WASHINGTON DC
200 AM EDT THU APR 17 2014

Note: "FAIR" indicates few or no clouds below 12,000 feet
with no significant weather and/or obstructions to visibility.
 TC=TEMPERATURE CELSIUS

 * =Non NWS site. Station does not report precipitation (e.g. rain,
    snow, etc.), thunder, or fog.

DCZ001-MDZ009-015-VAZ040>042-051-053>054-170700-
WASHINGTON METRO

CITY           SKY/WX    TMP DP  RH WIND       PRES   REMARKS
WASHINGTON NAT FAIR      42  23  46 NE6       30.56R
DULLES         FAIR      32  24  72 W5        30.55R
ANDREWS AFB    FAIR      36  22  57 NE6       30.54S
FT BELVOIR     FAIR      32  28  86 NW1       30.56R
QUANTICO       FAIR      36  30  79 NW8       30.57R
COLLEGE PARK*  FAIR      34  30  86 CALM      30.56R
LEESBURG*      FAIR      32  28  86 CALM      30.56S
MANASSAS*      FAIR      30  30 100 CALM      30.55S
GAITHERSBURG*  FAIR      32  25  74 CALM      30.57S

$$

MDZ006>007-011-014-170700-
BALTIMORE METRO

CITY           SKY/WX    TMP DP  RH WIND       PRES   REMARKS
BWI AIRPORT    FAIR      33  24  69 CALM      30.55R
MD SCIENCE CTR   N/A     41  22  46 MISG      30.56R
MARTIN STATE   FAIR      37  30  75 CALM      30.58S
ANNAPOLIS      FAIR      43  32  65 E7        30.55S

$$

MDZ012-015-019>023-170700-
MARYLAND EASTERN SHORE

CITY           SKY/WX    TMP DP  RH WIND       PRES   REMARKS
OCEAN CITY     FAIR      43  29  57 E10       30.53F
SALISBURY      FAIR      35  30  82 CALM      30.53F
BAY BRIDGE AP* FAIR      37  30  75 CALM      30.56S
CAMBRIDGE*     FAIR      36  32  87 CALM      30.54S
EASTON*        FAIR      35  32  87 CALM      30.58F

$$

MDZ017>025-170700-
SOUTHERN MARYLAND

CITY           SKY/WX    TMP DP  RH WIND       PRES   REMARKS
PATUXENT RIVER FAIR      41  30  65 E9        30.54S
ST INIGOES     FAIR      38  29  70 NE3       30.53S
LEONARDTOWN*   FAIR      36  28  75 CALM      30.55S

$$

MDZ003>005-170700-
NORTH CENTRAL MARYLAND

CITY           SKY/WX    TMP DP  RH WIND       PRES   REMARKS
FREDERICK*     FAIR      32  28  86 CALM      30.59R
HAGERSTOWN APT FAIR      35  17  47 E5        30.54R
WESTMINSTER*   FAIR      34  21  60 CALM      30.54S

$$

MDZ501>502-170700-
WESTERN MARYLAND

CITY           SKY/WX    TMP DP  RH WIND       PRES   REMARKS
OAKLAND*       FAIR      28   9  43 SE15G24   30.38R WCI  17
CUMBERLAND*    FAIR      37  19  48 CALM      30.55S

$$

VAZ025>031-170700-
SHENANDOAH VALLEY

CITY           SKY/WX    TMP DP  RH WIND       PRES   REMARKS
WINCHESTER*    FAIR      30  23  74 CALM      30.53R
STAUNTON*      FAIR      30  25  79 CALM      30.52R

$$

WVZ021-048>050-054>055-170700-
EASTERN WEST VIRGINIA PANHANDLE

CITY           SKY/WX    TMP DP  RH WIND       PRES   REMARKS
MARTINSBURG    FAIR      33  21  61 CALM      30.54R
PETERSBURG*    FAIR      35  30  84 CALM      30.51R

$$

VAZ036>039-050-170700-
CENTRAL FOOTHILLS

CITY           SKY/WX    TMP DP  RH WIND       PRES   REMARKS
CHARLOTTESVILL FAIR      33  20  58 NW3       30.53R
CULPEPER*      FAIR      32  27  80 N3        30.55S

$$

VAZ055>057-170700-
NORTH AND CENTRAL PIEDMONT

CITY           SKY/WX    TMP DP  RH WIND       PRES   REMARKS
FREDERICKSBRG* FAIR      34  30  86 CALM      30.54S
STAFFORD*      FAIR      30  30 100 CALM      30.58S

$$

NCZ024-NYZ072-PAZ021-071-VAZ022-071-170700-
OTHER REGIONAL OBSERVATIONS

CITY           SKY/WX    TMP DP  RH WIND       PRES   REMARKS
NEW YORK CITY  FAIR      39  17  41 E8        30.63R
PHILADELPHIA   FAIR      40  16  37 NE9       30.59R
PITTSBURGH     CLOUDY    39  16  39 E10       30.40R
ROANOKE        FAIR      36  22  56 CALM      30.49S
RICHMOND       FAIR      36  26  67 NE7       30.52S
RALEIGH        FAIR      40  27  59 E8        30.47F

$$

ANZ530>537-170700-
MARINE OBSERVATIONS

STATION/POSITION TIME  TEMP    WIND        PRES
                       AIR SEA DIR/SP/G
                 (UTC) (F)     (DEG/KT/KT) (MB)
THOMAS PT LIGHT  0600   42 52  100/ 11/ 12 1035.1S
BALT KEY BRIDGE  0600   44      80/  8/ 10 1034.8S
COVE POINT       0600   41     120/  8/ 10 1034.0S
LEWISETTA        0600   45 51  100/ 12/ 14 1033.5S
SOLOMONS ISLAND  0600      51                N/A
PINEY POINT      0600           90/  8/ 10   N/A

$$




USA.gov is the U.S. government's official web portal to all federal, state and local government web resources and services.